TimeEDT,TemperatureF,Dew PointF,Humidity,Sea Level PressureIn,VisibilityMPH,Wind Direction,Wind SpeedMPH,Gust SpeedMPH,PrecipitationIn,Events,Conditions,WindDirDegrees,DateUTC
12:15 AM,54.7,52.3,92,30.04,5.0,ENE,12.7,21.9,N/A,,Overcast,70,2013-05-06 04:15:00
12:35 AM,54.7,52.5,92,30.04,4.0,ENE,12.7,24.2,N/A,,Overcast,60,2013-05-06 04:35:00
12:55 AM,54.5,52.7,94,30.04,4.0,ENE,12.7,-,N/A,,Overcast,70,2013-05-06 04:55:00
1:15 AM,54.5,52.7,94,30.04,3.0,ENE,13.8,18.4,N/A,Rain,Light Rain,70,2013-05-06 05:15:00
1:35 AM,54.5,52.9,94,30.04,3.0,ENE,13.8,18.4,N/A,Rain,Rain,60,2013-05-06 05:35:00
1:55 AM,54.5,52.9,94,30.03,3.0,ENE,10.4,-,N/A,Rain,Light Rain,70,2013-05-06 05:55:00
2:15 AM,54.5,53.1,95,30.02,3.0,ENE,12.7,-,N/A,Rain,Rain,60,2013-05-06 06:15:00
2:35 AM,54.5,53.1,95,30.02,2.0,ENE,11.5,-,N/A,,Overcast,70,2013-05-06 06:35:00
2:55 AM,54.5,53.1,95,30.02,2.0,ENE,8.1,16.1,N/A,,Overcast,60,2013-05-06 06:55:00
3:15 AM,54.5,52.9,94,30.01,2.5,ENE,13.8,18.4,N/A,,Overcast,60,2013-05-06 07:15:00
3:35 AM,54.5,53.1,95,30.00,2.5,ENE,10.4,-,N/A,,Overcast,60,2013-05-06 07:35:00
3:55 AM,54.5,53.1,95,30.00,2.0,ENE,10.4,-,N/A,Rain,Light Rain,60,2013-05-06 07:55:00
4:15 AM,54.5,53.1,95,29.99,2.5,ENE,11.5,17.3,N/A,Rain,Light Rain,60,2013-05-06 08:15:00
4:35 AM,54.5,53.2,96,29.99,2.5,ENE,10.4,18.4,N/A,,Overcast,60,2013-05-06 08:35:00
4:55 AM,54.7,53.4,96,29.99,2.5,ENE,12.7,-,N/A,,Overcast,70,2013-05-06 08:55:00
5:15 AM,54.9,53.6,96,29.99,2.0,ENE,11.5,-,N/A,Rain,Rain,70,2013-05-06 09:15:00
5:35 AM,54.9,53.6,96,29.99,3.0,ENE,10.4,-,0.01,Rain,Light Rain,70,2013-05-06 09:35:00
5:55 AM,54.9,53.6,96,29.99,4.0,ENE,10.4,18.4,0.01,Rain,Light Rain,70,2013-05-06 09:55:00
6:15 AM,55.0,53.8,96,29.98,5.0,ENE,13.8,18.4,N/A,,Overcast,60,2013-05-06 10:15:00
6:35 AM,55.0,53.6,95,29.98,10.0,ENE,10.4,-,N/A,,Overcast,60,2013-05-06 10:35:00
6:55 AM,55.4,53.8,94,29.98,10.0,ENE,12.7,19.6,N/A,,Overcast,60,2013-05-06 10:55:00
7:15 AM,55.6,54.1,95,29.99,10.0,ENE,12.7,19.6,N/A,,Overcast,60,2013-05-06 11:15:00
7:35 AM,55.8,54.5,96,30.00,2.5,ENE,11.5,17.3,N/A,Rain,Light Rain,70,2013-05-06 11:35:00
7:55 AM,56.1,54.7,95,30.00,5.0,ENE,10.4,-,0.01,,Overcast,60,2013-05-06 11:55:00
8:15 AM,56.3,54.7,94,30.00,4.0,ENE,12.7,20.7,N/A,,Overcast,70,2013-05-06 12:15:00
8:35 AM,56.5,55.0,95,30.00,2.5,ENE,11.5,16.1,N/A,,Overcast,60,2013-05-06 12:35:00
8:55 AM,56.8,55.4,95,30.00,3.0,ENE,12.7,18.4,N/A,,Overcast,60,2013-05-06 12:55:00
9:15 AM,57.4,55.9,95,30.00,4.0,ENE,13.8,-,N/A,Rain,Light Rain,70,2013-05-06 13:15:00
9:35 AM,58.1,56.5,94,29.99,5.0,ENE,10.4,19.6,N/A,,Overcast,70,2013-05-06 13:35:00
9:55 AM,58.8,57.0,94,29.99,10.0,ENE,11.5,17.3,N/A,,Overcast,70,2013-05-06 13:55:00
10:15 AM,59.5,57.2,92,29.99,10.0,ENE,12.7,-,N/A,,Overcast,70,2013-05-06 14:15:00
10:35 AM,60.1,57.6,91,29.99,10.0,ENE,11.5,18.4,N/A,,Overcast,70,2013-05-06 14:35:00
10:55 AM,60.8,57.9,90,29.99,10.0,ENE,11.5,-,N/A,,Overcast,70,2013-05-06 14:55:00
11:15 AM,61.9,58.5,89,29.99,10.0,ENE,10.4,-,N/A,,Overcast,70,2013-05-06 15:15:00
11:35 AM,63.1,58.8,86,29.97,10.0,East,12.7,-,N/A,,Overcast,80,2013-05-06 15:35:00
11:55 AM,64.4,59.0,83,29.97,10.0,ENE,17.3,23.0,N/A,,Overcast,70,2013-05-06 15:55:00
12:15 PM,65.1,60.1,84,29.96,7.0,ENE,10.4,17.3,N/A,,Overcast,70,2013-05-06 16:15:00
12:35 PM,65.7,59.7,81,29.94,10.0,East,10.4,20.7,N/A,,Overcast,80,2013-05-06 16:35:00
12:55 PM,64.4,60.1,86,29.93,3.0,ENE,11.5,-,0.02,Rain,Rain,70,2013-05-06 16:55:00
1:15 PM,63.3,60.4,90,29.91,5.0,ENE,10.4,-,0.02,Rain,Light Rain,60,2013-05-06 17:15:00
1:35 PM,63.3,60.3,90,29.91,5.0,NE,9.2,-,0.03,Rain,Rain,50,2013-05-06 17:35:00
1:55 PM,63.5,60.8,91,29.91,10.0,East,10.4,-,0.04,Rain,Light Rain,80,2013-05-06 17:55:00
2:15 PM,63.7,60.3,89,29.89,7.0,ENE,12.7,19.6,N/A,Rain,Light Rain,70,2013-05-06 18:15:00
2:35 PM,63.1,60.4,91,29.90,7.0,East,8.1,-,0.01,Rain,Rain,80,2013-05-06 18:35:00
2:55 PM,63.0,60.4,91,29.89,7.0,ENE,5.8,-,0.03,Rain,Rain,60,2013-05-06 18:55:00
3:15 PM,62.6,60.4,93,29.90,1.5,South,9.2,-,0.17,Rain,Heavy Rain,180,2013-05-06 19:15:00
3:55 PM,63.1,60.6,91,29.88,5.0,East,3.5,-,0.23,Rain,Rain,100,2013-05-06 19:55:00
4:15 PM,62.8,60.3,91,29.88,5.0,SE,5.8,-,0.08,Rain,Heavy Rain,140,2013-05-06 20:15:00
4:35 PM,63.5,61.0,91,29.86,10.0,SE,11.5,-,0.20,Rain,Rain,140,2013-05-06 20:35:00
4:55 PM,63.1,60.8,92,29.86,2.0,SSW,8.1,-,0.32,Rain,Heavy Rain,210,2013-05-06 20:55:00
5:15 PM,59.2,56.8,92,29.87,3.0,WSW,15.0,19.6,0.11,Rain,Heavy Rain,240,2013-05-06 21:15:00
5:35 PM,59.0,57.0,93,29.87,1.0,Calm,Calm,-,0.42,Rain,Heavy Rain,0,2013-05-06 21:35:00
5:55 PM,59.9,58.1,94,29.86,3.0,Calm,Calm,-,0.49,Rain,Light Rain,0,2013-05-06 21:55:00
6:15 PM,61.5,58.8,91,29.87,10.0,ESE,3.5,-,N/A,,Mostly Cloudy,110,2013-05-06 22:15:00
6:35 PM,61.2,58.8,92,29.87,10.0,East,3.5,-,0.01,Rain,Rain,100,2013-05-06 22:35:00
6:55 PM,60.8,57.7,90,29.88,3.0,South,3.5,-,0.06,Rain,Heavy Rain,170,2013-05-06 22:55:00
7:15 PM,60.1,57.4,91,29.89,10.0,Calm,Calm,-,0.02,Rain,Light Rain,0,2013-05-06 23:15:00
7:35 PM,60.1,57.2,90,29.88,5.0,Calm,Calm,-,0.05,Rain,Rain,0,2013-05-06 23:35:00
7:55 PM,59.0,56.1,90,29.89,3.0,Calm,Calm,-,0.28,Rain,Heavy Rain,0,2013-05-06 23:55:00
8:15 PM,58.3,56.3,93,29.89,10.0,North,3.5,-,0.01,Rain,Light Rain,10,2013-05-07 00:15:00
8:35 PM,58.1,56.3,94,29.90,10.0,NNE,4.6,-,0.01,,Scattered Clouds,30,2013-05-07 00:35:00
8:55 PM,57.7,56.1,94,29.90,10.0,North,4.6,-,0.01,,Scattered Clouds,10,2013-05-07 00:55:00
9:15 PM,58.1,56.5,94,29.91,10.0,NE,4.6,-,N/A,,Mostly Cloudy,40,2013-05-07 01:15:00
9:35 PM,58.1,56.5,94,29.92,10.0,WNW,3.5,-,N/A,,Overcast,290,2013-05-07 01:35:00
9:55 PM,60.3,58.8,95,29.92,10.0,ENE,10.4,-,N/A,,Overcast,70,2013-05-07 01:55:00
10:15 PM,60.1,58.1,93,29.93,10.0,Calm,Calm,-,N/A,,Overcast,0,2013-05-07 02:15:00
10:35 PM,58.6,56.8,94,29.93,7.0,Calm,Calm,-,N/A,,Overcast,0,2013-05-07 02:35:00
10:55 PM,58.5,57.0,95,29.92,5.0,Calm,Calm,-,N/A,,Overcast,0,2013-05-07 02:55:00
11:15 PM,59.0,57.6,95,29.92,5.0,Calm,Calm,-,N/A,,Overcast,0,2013-05-07 03:15:00
11:35 PM,60.3,59.0,96,29.91,7.0,East,3.5,-,N/A,,Overcast,80,2013-05-07 03:35:00
11:55 PM,61.0,59.7,96,29.91,7.0,East,5.8,-,N/A,,Overcast,100,2013-05-07 03:55:00